Regional Weather Roundup
Issued by NWS

Home | Current Version | Previous Version | Graphics & Text | Print | Product List | Glossary On
Versions: 1 2 3 4 5 6 7 8 9 10 11 12 13 14 15 16 17 18 19 20 21 22 23 24 25 26 27 28 29 30 31 32 33 34 35 36 37 38 39 40 41 42 43 44 45 46 47 48 49 50
799
ASUS43 KLSX 250857
RWRMO

WEATHER SUMMARY FOR MISSOURI
NATIONAL WEATHER SERVICE SPRINGFIELD MO
300 AM CST SAT FEB 25 2017

NOTE: "FAIR" INDICATES FEW OR NO CLOUDS BELOW 12,000 FEET WITH NO
       SIGNIFICANT WEATHER AND/OR OBSTRUCTIONS TO VISIBILITY.
       CURRENT SKY AND/OR WEATHER CONDITIONS ARE NOT AVAILABLE FOR
       CHILLICOTHE AND FARMINGTON.

MOZ001>031-035>038-043-044-053-054-251000-
...NORTHERN AND WESTERN MISSOURI...

CITY           SKY/WX    TMP DP  RH WIND       PRES   REMARKS
KANSAS CTY INT MOCLDY    26  18  71 NW10      30.07S WCI  16
LEE`S SUMMIT   CLOUDY    27  18  69 NW16      30.07S WCI  15
ST JOSEPH      CLOUDY    26  18  71 MISG      30.09S
CHILLICOTHE      N/A     24  15  68 NW9G20    30.05R WCI  14
KIRKSVILLE     PTCLDY    21  16  79 NW16G25   29.95R WCI   7

$$
MOZ066>068-077>081-088>096-101>105-251000-
...SOUTHWEST MISSOURI...

CITY           SKY/WX    TMP DP  RH WIND       PRES   REMARKS
SPRINGFIELD    PTCLDY    26  15  63 NW13G24   30.07R WCI  15
JOPLIN         CLEAR     24  17  74 W8        30.15S WCI  15

$$
MOZ032>034-039>042-045>050-055>058-069>072-251000-
...CENTRAL MISSOURI...

CITY           SKY/WX    TMP DP  RH WIND       PRES   REMARKS
COLUMBIA       NOT AVBL
JEFFERSON CITY CLOUDY    27  17  66 W20G30    30.02R WCI  13
ROLLA          CLOUDY    26  16  65 W21G31    29.96S WCI  12
SEDALIA        PTCLDY    25  17  72 W12       30.05R WCI  14
WARRENSBURG    CLOUDY    28  18  64 W15G23    30.07S WCI  17

$$
MOZ051-052-059>065-251000-
...EAST CENTRAL MISSOURI...

CITY           SKY/WX    TMP DP  RH WIND       PRES   REMARKS
ST LOUIS INTL  FLURRIES  31  19  61 W24G40    29.90R WCI  17
ST CHARLES     CLOUDY    30  19  64 W21G32    29.90R WCI  17

$$
MOZ072>076-082>087-097>100-106>115-251000-
...SOUTH CENTRAL AND SOUTHEAST MISSOURI...

CITY           SKY/WX    TMP DP  RH WIND       PRES   REMARKS
CAPE GIRARDEAU PTCLDY    35  20  54 NW17      29.92R WCI  25
POPLAR BLUFF   CLEAR     35  20  54 W15G26    29.95R WCI  25
WEST PLAINS    CLOUDY    30  18  60 NW15G24   29.99R WCI  19

$$



USA.gov is the U.S. government's official web portal to all federal, state and local government web resources and services.